カタログに戻る

ONEWEB-0360

運用中通信PO
NORAD 49286·PAYLOAD·🇬🇧 United Kingdom

打ち上げ Oct 14, 2021 から Vostochny Cosmodrome

Loading…

次のパス (今後24時間)

TLE

最新Source: CelesTrak SupGP

元期: Sep 14, 2026, 20:54 UTC

1 49286C 21090H   26257.87132361  .00002507  00000+0  61723-2 0  2575
2 49286  87.9135 256.5504 0001909  90.0413 307.6732 13.20767716    16

AllMySatでONEWEB-0360をリアルタイム追跡

Download on the App Store